DW5244 Weather Reports


Display with metric or nautical units.
time (UTC)temp
F
wind
direction
speed
MPH
gust
MPH
rain 1hr
in
rain 24hr
in
rain mn
in
humidity
%
barometer
mb
20260906144530 78 360 8.0 12.0 0.00 0.08 0.00 65 1016.7
20260906143026 76 360 9.0 13.0 0.00 0.08 0.00 68 1016.8
20260906141520 75 355 10.0 14.0 0.00 0.08 0.00 70 1016.9
20260906140030 73 327 7.0 12.0 0.00 0.08 0.00 73 1016.8
20260906134511 72 319 7.0 12.0 0.00 0.08 0.00 75 1016.9
20260906133016 71 329 9.0 13.0 0.00 0.08 0.00 77 1016.8
20260906131502 70 360 7.0 12.0 0.00 0.08 0.00 79 1016.8
20260906124555 69 336 8.0 12.0 0.00 0.08 0.00 80 1016.4
20260906123059 69 325 7.0 11.0 0.00 0.08 0.00 80 1016.1
20260906121551 69 360 8.0 11.0 0.00 0.08 0.00 80 1016.1
20260906120107 69 338 10.0 13.0 0.00 0.08 0.00 79 1016.0
20260906114600 69 322 8.0 11.0 0.00 0.08 0.00 79 1015.9
20260906113046 69 360 9.0 13.0 0.00 0.08 0.00 79 1015.6
20260906111551 70 329 8.0 12.0 0.00 0.08 0.00 78 1015.6
20260906110045 70 355 8.0 12.0 0.00 0.08 0.00 78 1015.4
20260906104545 69 360 7.0 11.0 0.00 0.08 0.00 79 1015.3
20260906103048 69 360 6.0 10.0 0.00 0.08 0.00 79 1015.3
20260906101542 69 360 4.0 9.0 0.00 0.08 0.00 79 1015.1
20260906100041 70 326 6.0 11.0 0.00 0.08 0.00 78 1015.2
20260906094545 70 321 4.0 9.0 0.00 0.08 0.00 77 1015.2
20260906093038 71 360 5.0 9.0 0.00 0.08 0.00 76 1015.3
20260906091536 71 342 7.0 10.0 0.00 0.08 0.00 75 1015.4
20260906090032 71 360 8.0 12.0 0.00 0.08 0.00 76 1015.4
20260906084528 71 360 6.0 11.0 0.00 0.08 0.00 75 1015.3
20260906083025 72 360 5.0 10.0 0.00 0.08 0.00 74 1015.3
20260906081523 71 360 4.0 8.0 0.00 0.08 0.00 75 1015.4
20260906080021 72 342 1.0 9.0 0.00 0.08 0.00 73 1015.5
20260906074520 73 336 9.0 12.0 0.00 0.08 0.00 72 1015.4
20260906073018 73 360 9.0 12.0 0.00 0.08 0.00 72 1015.6
20260906071517 73 360 9.0 13.0 0.00 0.08 0.00 72 1015.7
20260906070021 73 360 7.0 12.0 0.00 0.08 0.00 71 1015.7
20260906064512 73 360 7.0 10.0 0.00 0.08 0.00 70 1015.6
20260906063011 73 360 4.0 9.0 0.00 0.08 0.00 70 1015.9
20260906061511 74 360 9.0 12.0 0.00 0.08 0.00 70 1016.0
20260906060007 74 312 5.0 12.0 0.00 0.08 0.00 69 1016.0
20260906054504 74 360 6.0 11.0 0.00 0.08 0.00 69 1015.9
20260906053004 74 296 3.0 6.0 0.00 0.08 0.00 68 1015.9
20260906051501 74 315 2.0 6.0 0.00 0.08 0.00 69 1015.8
20260906050105 74 340 2.0 8.0 0.00 0.08 0.00 69 1015.6
20260906044600 75 360 5.0 11.0 0.00 0.08 0.08 68 1015.5
20260906043057 75 360 9.0 13.0 0.00 0.08 0.08 67 1015.4
20260906041556 75 360 6.0 10.0 0.00 0.08 0.08 66 1015.4
20260906034556 77 360 9.0 13.0 0.00 0.08 0.08 61 1015.1
20260906033103 77 360 7.0 13.0 0.00 0.08 0.08 60 1014.9
20260906031611 77 355 10.0 14.0 0.00 0.08 0.08 62 1014.5
20260906030055 76 360 8.0 12.0 0.00 0.08 0.08 63 1014.3
20260906024604 77 355 11.0 14.0 0.00 0.08 0.08 61 1013.9
20260906023059 77 346 12.0 14.0 0.00 0.08 0.08 60 1013.7
20260906021552 77 360 9.0 11.0 0.00 0.08 0.08 60 1013.5
20260906020051 78 355 9.0 11.0 0.00 0.08 0.08 58 1013.3
20260906014554 78 360 9.0 13.0 0.00 0.08 0.08 57 1013.3
20260906013051 79 317 8.0 10.0 0.00 0.08 0.08 55 1013.2
20260906011551 78 15 2.0 6.0 0.00 0.08 0.08 55 1013.2
20260906010052 79 84 3.0 10.0 0.00 0.08 0.08 54 1013.1
20260906004548 78 46 2.0 5.0 0.00 0.08 0.08 58 1013.3
20260906003048 78 26 3.0 10.0 0.00 0.08 0.08 59 1013.0
20260906001546 79 5 8.0 12.0 0.00 0.08 0.08 59 1013.0
20260906000055 78 18 8.0 10.0 0.00 0.08 0.08 58 1012.9
20260905234550 79 32 7.0 12.0 0.00 0.08 0.08 57 1012.6
20260905233047 79 355 10.0 13.0 0.00 0.08 0.08 58 1012.6
20260905231545 78 355 12.0 16.0 0.00 0.08 0.08 61 1012.7
20260905230045 77 355 12.0 20.0 0.00 0.08 0.08 62 1013.1
20260905224543 79 331 17.0 26.0 0.00 0.08 0.08 57 1013.4
20260905223042 79 360 11.0 18.0 0.00 0.08 0.08 56 1013.3
20260905221541 79 360 15.0 27.0 0.00 0.08 0.08 56 1013.4
20260905220041 80 66 16.0 30.0 0.00 0.08 0.08 52 1012.6
20260905214542 78 48 22.0 34.0 0.00 0.08 0.08 57 1012.6
20260905213045 80 49 26.0 40.0 0.00 0.08 0.08 56 1013.0
20260905211559 89 39 3.0 9.0 0.02 0.08 0.08 45 1012.7
20260905210051 86 355 4.0 9.0 0.05 0.08 0.08 58 1012.5
20260905204539 79 360 7.0 12.0 0.08 0.08 0.08 73 1012.8
20260905203034 75 49 5.0 9.0 0.08 0.08 0.08 91 1013.4
20260905201534 72 248 4.0 18.0 0.06 0.06 0.06 84 1013.9
20260905200032 75 5 14.0 26.0 0.03 0.03 0.03 77 1014.4
20260905194524 83 360 15.0 24.0 0.00 0.00 0.00 61 1014.0
20260905193024 89 360 13.0 19.0 0.00 0.00 0.00 44 1013.8
20260905191521 93 290 6.0 13.0 0.00 0.00 0.00 36 1013.9
20260905190020 95 302 5.0 9.0 0.00 0.00 0.00 34 1014.3
20260905184516 95 313 7.0 12.0 0.00 0.00 0.00 35 1014.5
20260905183020 93 281 5.0 11.0 0.00 0.00 0.00 35 1014.9
20260905181511 91 360 5.0 13.0 0.00 0.00 0.00 39 1015.3
20260905180008 92 261 5.0 13.0 0.00 0.00 0.00 38 1015.3
20260905174504 94 236 3.0 10.0 0.00 0.00 0.00 38 1015.5
20260905173105 91 259 1.0 6.0 0.00 0.00 0.00 42 1015.6
20260905171557 90 275 8.0 15.0 0.00 0.00 0.00 42 1015.8
20260905170054 89 360 3.0 12.0 0.00 0.00 0.00 43 1015.8
20260905164549 89 159 3.0 6.0 0.00 0.00 0.00 44 1016.0
20260905163045 87 259 3.0 11.0 0.00 0.00 0.00 46 1016.1
20260905161540 87 360 5.0 9.0 0.00 0.00 0.00 45 1016.2
20260905160037 86 225 4.0 9.0 0.00 0.00 0.00 47 1016.3
20260905154535 85 198 6.0 10.0 0.00 0.00 0.00 48 1016.2
20260905153027 85 175 2.0 5.0 0.00 0.00 0.00 50 1016.2
20260905151523 84 200 1.0 6.0 0.00 0.00 0.00 52 1016.2
20260905150020 83 273 1.0 6.0 0.00 0.00 0.00 52 1016.3